Regional Weather Roundup
Issued by NWS Charleston, SC

Current Version | Previous Version | Graphics & Text | Print | Product List | Glossary On
Versions: 1 2 3 4 5 6 7 8 9 10 11 12 13 14 15 16 17 18 19 20 21 22 23 24 25 26 27 28 29 30 31 32 33 34 35 36 37 38 39 40 41 42 43 44 45 46 47 48 49 50
346 ASUS42 KCHS 201412 RWRCHS REGIONAL WEATHER ROUNDUP NATIONAL WEATHER SERVICE CHARLESTON SC 1000 AM EDT FRI OCT 20 2017 NOTE: "FAIR" INDICATES FEW OR NO CLOUDS BELOW 12,000 FEET WITH NO SIGNIFICANT WEATHER AND/OR OBSTRUCTIONS TO VISIBILITY. NOT ALL STATIONS ARE QUALITY CONTROLLED. USE DATA WITH CAUTION... ESPECIALLY DEWPOINT OBSERVATIONS. SCZ027-030-031-034>040-042>050-201500- ...SOUTHEAST SOUTH CAROLINA... CITY SKY/WX TMP DP RH WIND PRES REMARKS N CHARLESTON SUNNY 69 57 65 N7 30.27R WATERFRONT PRK N/A 67 58 72 N10 30.12R JOHNS ISLAND FAIR 70 57 64 N9 30.27R PINOPOLIS N/A 64 57 77 N5 30.20R MONCKS CORNER FAIR 66 59 77 N5 30.28S SUMMERVILLE FAIR 63 59 88 N3 30.29S BEAUFORT MCAS SUNNY 68 59 73 NE6 30.28R BEAUFORT ARPT FAIR 68 57 68 NE7 30.27R HILTON HEAD IS SUNNY 70 59 68 NE10 N/A WALTERBORO SUNNY 63 54 72 CALM 30.29S ALLENDALE N/A 64 52 63 CALM N/A ...SOUTHERN MIDLANDS AND PEE DEE... CITY SKY/WX TMP DP RH WIND PRES REMARKS GEORGETOWN FAIR 68 55 64 CALM 30.29R KINGSTREE FAIR 61 54 77 CALM 30.29R ORANGEBURG SUNNY 61 51 70 CALM 30.29R BARNWELL N/A 66 50 55 CALM 30.30R AIKEN FAIR 63 48 59 CALM 30.33R MANNING HAZE 63 50 63 MISG 30.29R VSB<1/4 COLUMBIA SUNNY 58 54 86 S3 30.30R SUMTER SUNNY 63 49 61 CALM 30.27R FLORENCE SUNNY 64 48 56 CALM 30.29R MYRTLE BEACH SUNNY 67 54 63 N7 30.29R N MYRTLE BEACH SUNNY 69 54 58 N3 30.27R $$ GAZ063-065-086>088-099>101-113>116-118-119-134>141-150-201500- ...SOUTHEAST GEORGIA... CITY SKY/WX TMP DP RH WIND PRES REMARKS SAVANNAH ARPT MOSUNNY 68 58 70 N6 30.27R HUNTER AAF SUNNY 69 57 65 N8 30.24R FORT STEWART SUNNY 67 56 67 NE7 30.25R STATESBORO SUNNY 64 53 68 N3 30.29R SYLVANIA SUNNY 64 55 74 CALM 30.29S CLAXTON FAIR 66 59 79 N5 30.27F ...CSRA...CENTRAL AND FAR SOUTHEAST GEORGIA... CITY SKY/WX TMP DP RH WIND PRES REMARKS THOMSON SUNNY 55 49 78 N3 30.36R AUGUSTA-BUSH SUNNY 60 50 69 N5 30.30R AUGUSTA-DANIEL SUNNY 62 47 57 N6 30.30R SWAINSBORO FAIR 64 52 63 MISG 30.29S VIDALIA SUNNY 64 57 77 NE5 30.27S EASTMAN FAIR 63 48 59 CALM 30.30S HAZLEHURST FAIR 64 51 62 CALM 30.27R ALMA SUNNY 67 58 72 VRB5 30.26R WAYCROSS SUNNY 69 57 65 NE7 30.25S JESUP NOT AVBL BAXLEY FAIR 63 57 82 NE6 30.26S BRUNSWICK SUNNY 70 59 68 NE8 30.25R SAINT SIMONS SUNNY 74 65 73 NE15G21 30.23R $$ SCZ027-028-034-036>038-045-046-048>050-GAZ119-141-201500- ...LAKE AND SUPPLEMENTAL COASTAL OBSERVATIONS... STATION/POSITION TIME TEMP WIND PRES WAVE SWELL AIR SEA DIR/SP/G HT/PER HT/PER/DIR (UTC) (F) (DEG/KT/KT) (MB) (FT/S) (FT/S/D) WINYAH BAY 1245 62 340/ 6 1024.0 LAKE MURRAY 1320 60 CALM / 2 1025.1R ACE BASIN NERRS 1245 60 360/ 1 1025.0 FORT PULASKI 1348 69 73 30/ 9/ 11 1025.0R SAPELO ISLAND NOT AVBL $$ ANZ835-935-AMZ111-154-330-350-352-354-370-450-454-472-201500- ...C-MAN AND BUOY OBSERVATIONS... STATION/POSITION TIME TEMP WIND PRES WAVE SWELL AIR SEA DIR/SP/G HT/PER HT/PER/DIR (UTC) (F) (DEG/KT/KT) (MB) (FT/S) (FT/S/D) BUOY 41004 1350 75 80 40/ 10/ 14 1023.7R 4/ 8 3/ 90/ 8 BUOY 41008 1350 74 77 40/ 17/ 19 1023.0R 4/10 3/120/10 FOLLY BEACH CMAN 1300 67 360/ 8/ 11 1024.9R CAPERS NEARSHORE 1308 66 73 30/ 12/ 17 1024.1R FRIPP NEARSHORE 1308 70 20/ 12/ 17 N/A STATION/POSITION TIME TEMP WIND PRES WAVE SWELL AIR SEA DIR/SP/G HT/PER HT/PER/DIR (UTC) (F) (DEG/KT/KT) (MB) (FT/S) (FT/S/D) 5E ST. MARYS GA 1330 77 N/A 5/ 8 FRYING PAN BUOY 1350 73 76 10/ 10/ 12 1024.1R 3/ 9 3/140/ 9 BUOY 41025 1350 71 81 340/ 8/ 12 1023.9R 3/ 8 3/110/ 8 CAPE LOOKOUT NC 1300 67 330/ 6/ 7 1023.8R BUOY 41002 1350 77 80 30/ 16/ 17 1021.9R 6/ 8 3/ 80/ 8 BUOY 41010 NOT AVBL ST AUGUSTINE FL 1400 77 77 30/ 17/ 19 1022.2R $$

USA.gov is the U.S. government's official web portal to all federal, state and local government web resources and services.